Regional Weather Roundup
Issued by NWS

Home | Current Version | Previous Version | Graphics & Text | Print | Product List | Glossary On
Versions: 1 2 3 4 5 6 7 8 9 10 11 12 13 14 15 16 17 18 19 20 21 22 23 24 25 26 27 28 29 30 31 32 33 34 35 36 37 38 39 40 41 42 43 44 45 46 47 48 49 50
000
ASUS43 KMKX 210500
RWRWI

WISCONSIN REGIONAL WEATHER ROUNDUP
NATIONAL WEATHER SERVICE MILWAUKEE/SULLIVAN WI
1200 AM CDT MON APR 21 2014

NOTE: "FAIR" INDICATES FEW OR NO CLOUDS BELOW 12,000 FEET WITH NO
SIGNIFICANT WEATHER AND/OR OBSTRUCTIONS TO VISIBILITY.

WIZ001-002-006>008-014>016-023>028-210600-
NORTHWEST WISCONSIN

CITY           SKY/WX    TMP DP  RH WIND       PRES   REMARKS
SUPERIOR ARPT  CLEAR     34  32  92 CALM      29.97S
ASHLAND        CLEAR     35  34  96 W5        29.99F WCI  31
HAYWARD        CLEAR     41  32  70 CALM      29.98F
SIREN          CLEAR     51  31  47 E3        29.97R
RICE LAKE      PTCLDY    51  48  90 CALM      29.97F
LADYSMITH      PTCLDY    52  51  95 E6        29.99F
EAU CLAIRE     CLOUDY    57  53  86 CALM      29.94F
MENOMONIE      MOCLDY    54  52  94 SE6       29.95F
NEW RICHMOND   MOCLDY    52  51  97 SE3       29.95F
OSCEOLA        MOCLDY    47  41  77 CALM      29.97F
$$

WIZ003>005-009-010-017-018-210600-
NORTH CENTRAL WISCONSIN

CITY           SKY/WX    TMP DP  RH WIND       PRES   REMARKS
WOODRUFF       CLEAR     40  35  83 CALM      30.00F
RHINELANDER    FOG       41  40  96 CALM      30.00F VSB 1/4
EAGLE RIVER    CLEAR     38  38 100 CALM      30.01S
LAND O LAKES   CLEAR     32  30  92 CALM      30.02S
PHILLIPS       CLEAR     43  43  99 CALM      29.99F FOG
TOMAHAWK       FOG       45  44  97 CALM      30.00S VSB 1/2
MEDFORD        FOG       49  49  99 NE7       29.98S VSB 1/4
MERRILL        FOG       46  46 100 CALM      29.99F VSB 1
$$

WIZ029-030-035-036-043>047-210600-
CENTRAL WISCONSIN

CITY           SKY/WX    TMP DP  RH WIND       PRES   REMARKS
WAUSAU         CLOUDY    53  51  93 CALM      29.97S
MOSINEE        CLOUDY    52  52 100 CALM      30.00S
MARSHFIELD     CLOUDY    54  51  90 CALM      29.97F FOG
STEVENS POINT  DRIZZLE   52  51  95 CALM      29.98F
WAUPACA        FOG       52  52 100 CALM      29.99F VSB 1/4
WAUTOMA        CLOUDY    54  54 100 NE3       29.98F FOG
WISC RAPIDS    LGT RAIN  54  52  93 CALM      30.00R FOG
CAMP DOUGLAS   LGT RAIN  50  50 100 N5        29.99S FOG
$$

WIZ011>013-019>022-031-037>040-048>050-210600-
NORTHEAST WISCONSIN

CITY           SKY/WX    TMP DP  RH WIND       PRES   REMARKS
ANTIGO         CLOUDY    48  48  99 NE6       30.01R FOG
STURGEON BAY   CLOUDY    48  41  76 CALM      29.99F
GREEN BAY      LGT RAIN  50  50 100 CALM      29.99F FOG
MANITOWOC      NOT AVBL
APPLETON       NOT AVBL
CLINTONVILLE   LGT RAIN  50  50 100 CALM      29.99F
OSHKOSH        MOCLDY    51  47  86 CALM      29.97F
$$

WIZ032>034-041-042-053>061-210600-
SOUTHWEST WISCONSIN

CITY           SKY/WX    TMP DP  RH WIND       PRES   REMARKS
LA CROSSE      CLOUDY    54  53  97 CALM      29.94F FOG
SPARTA         CLOUDY    53  52  97 CALM      29.99S FOG
VIROQUA        CLOUDY    58  56  95 SW9       30.00S
BOSCOBEL       CLOUDY    58  55  90 CALM      29.99R FOG
PRAIRIE DU CHI CLOUDY    56  54  92 CALM      29.99S FOG
PLATTEVILLE    FAIR      64  47  53 S6        29.98F
$$

WIZ056-057-062-063-064-067-068-210600-
SOUTH CENTRAL WISCONSIN

CITY           SKY/WX    TMP DP  RH WIND       PRES   REMARKS
BARABOO/DELLS  CLOUDY    54  52  92 CALM      29.97S FOG
LONE ROCK      NOT AVBL
WATERTOWN      CLOUDY    64  45  50 CALM      29.98S
MADISON        CLOUDY    56  53  90 CALM      29.97F
MIDDLETON      MOCLDY    56  52  84 CALM      29.98F
MONROE         CLOUDY    64  45  49 S10       29.98S
JANESVILLE     CLOUDY    64  41  42 S3        29.98S
$$

WIZ051-052-058>065-066-070>072-210600-
SOUTHEAST WISCONSIN

CITY           SKY/WX    TMP DP  RH WIND       PRES   REMARKS
MILWAUKEE      CLOUDY    62  40  44 S7        30.00S
WAUKESHA       CLOUDY    59  41  51 S5        30.00F
MILWAUKEE/TIMM MOCLDY    61  37  41 S3        30.00S
RACINE         MOCLDY    56  40  55 S5        30.01F
BURLINGTON     MOCLDY    53  43  69 CALM      30.00S
KENOSHA        MOCLDY    55  40  56 S7        30.00S
FOND DU LAC    MOCLDY    51  47  86 CALM      29.98S
SHEBOYGAN      PTCLDY    45  40  82 CALM      29.99S
WEST BEND      MOCLDY    50  43  76 CALM      29.99S
JUNEAU         MOCLDY    58  44  59 SE6       29.99F
$$

LSZ147-162-210600-
LAKE SUPERIOR

STATION/POSITION TIME  TEMP    WIND        PRES    WAVE
                       AIR SEA DIR/SP/G            HT/PER
                 (UTC) (F)     (DEG/KT/KT) (MB)    (FT/S)
DEVILS ISLAND    0400   50     160/ 13/ 15 1015.1F
PORT WING        0400   47     150/  5/  9 1014.6F
SAXON HARBOR     0400           CALM  /  3 1015.2F
$$

LMZ867-665-643>646-210600-
LAKE MICHIGAN

STATION/POSITION TIME  TEMP    WIND        PRES    WAVE
                       AIR SEA DIR/SP/G            HT/PER
                 (UTC) (F)     (DEG/KT/KT) (MB)    (FT/S)
NORTHPORT PIER   0400   39     310/  6/ 10 1016.3S
SISTER BAY       0409          350/ 17/ 18   N/A
KEWAUNEE LAKESHO 0400   41     160/  3/  3 1016.6F
SHEBOYGAN LAKESH 0400   45      CALM  /  1 1016.5F
PORT WASHINGTON  0440   45      90/  2/  3 1015.9F
MILWAUKEE LAKESH 0400   51     150/  2/  3   N/A
KENOSHA   LAKESH 0400   50     180/ 10/ 12   N/A
$$

TC  - TEMPERATURE IN CELSIUS
VSB - VISIBILITY IN STATUTE MILES
WCI - WIND CHILL INDEX
HX  - HEAT INDEX




USA.gov is the U.S. government's official web portal to all federal, state and local government web resources and services.